• Join FlightAware (Why Join?)
  • Login
  • US Flag 
02:55AM EDT


 

Airport Tracker/Info


-or-


 

Live Flight TrackerFlight Track Log ✈ TCF642 ✈ 20-Sep-2013 ✈ KMSP - KORD

Flight Track Log - Related Links

Times and Time Zones

All times are in EDT time to prevent confusion due to time zone crossing. See the TCF642 flight status page for this flight to view local times or setup timezone preferences in your user account.

Time Position Orientation Groundspeed Altitude Reporting Facility
EDT Latitude Longitude Course Direction KTS MPH feet Rate Location/Type
09:21PM 44.8769 -93.3014 116° Southeast 199 229 3,800  Level Minneapolis Center
09:22PM 44.8458 -93.3789 241° Southwest 260 299 6,400 3,060 Climbing Minneapolis Center
09:23PM 44.7542 -93.3528 169° South 304 350 10,100 2,700 Climbing Minneapolis Center
09:24PM 44.6781 -93.2867 148° Southeast 342 394 12,000 1,980 Climbing Minneapolis Center
09:25PM 44.5958 -93.2147 148° Southeast 353 406 14,300 1,740 Climbing Minneapolis Center
09:26PM 44.5017 -93.1333 148° Southeast 400 460 15,600 1,800 Climbing Minneapolis Center
09:27PM 44.2690 -92.0152 116° Southeast  Level Estimated
09:27PM 44.3881 -93.0286 147° Southeast 412 474 18,100  Level Minneapolis Center
09:28PM 44.2997 -92.9233 140° Southeast 416 479 19,900 1,740 Climbing Minneapolis Center
09:29PM 44.2081 -92.8175 140° Southeast 425 489 21,700 1,560 Climbing Minneapolis Center
09:30PM 44.1136 -92.7092 141° Southeast 438 504 23,100 1,320 Climbing Minneapolis Center
09:31PM 44.0206 -92.6003 140° Southeast 439 505 24,500 1,200 Climbing Minneapolis Center
09:33PM 43.9222 -92.4886 141° Southeast 450 518 25,700 1,320 Climbing Minneapolis Center
09:34PM 43.8031 -92.3506 140° Southeast 480 552 27,300 1,260 Climbing Minneapolis Center
09:35PM 43.6986 -92.2314 140° Southeast 490 564 28,400 780 Climbing Minneapolis Center
09:36PM 43.5936 -92.1128 141° Southeast 492 566 29,000 240 Climbing Minneapolis Center
09:37PM 43.4875 -91.9978 142° Southeast 490 564 29,000  Level Minneapolis Center
09:38PM 43.3842 -91.8817 141° Southeast 485 558 29,000  Level Minneapolis Center
09:39PM 43.2592 -91.7425 141° Southeast 485 558 29,000  Level Minneapolis Center
09:40PM 43.1678 -91.6061 133° Southeast 491 565 29,000  Level Minneapolis Center
09:41PM 43.1069 -91.4322 116° Southeast 504 580 29,000 -300 Level Minneapolis Center
09:42PM 43.0467 -91.2586 115° Southeast 505 581 28,400 -1,020 Descending Minneapolis Center
09:43PM 42.9903 -91.0978 116° Southeast 480 552 27,000 -960 Descending Minneapolis Center
09:43PM 42.9700 -91.0408 116° Southeast 449 517 27,000  Level Chicago Center
09:44PM 42.9069 -90.8586 115° Southeast 443 510 27,000  Level Chicago Center
09:45PM 42.8536 -90.7092 116° Southeast 442 509 27,000  Level Chicago Center
09:46PM 42.8011 -90.5608 116° Southeast 439 505 27,000  Level Chicago Center
09:47PM 42.7481 -90.4136 116° Southeast 437 503 27,000 -120 Level Chicago Center
09:48PM 42.6958 -90.2669 116° Southeast 435 501 26,800 -720 Descending Chicago Center
09:49PM 42.6469 -90.1156 114° Southeast 441 507 25,600 -1,380 Descending Chicago Center
09:50PM 42.6197 -89.9403 102° East 480 552 24,000 -1,680 Descending Chicago Center
09:51PM 42.5875 -89.7464 103° East 464 534 22,200 -1,680 Descending Chicago Center
09:52PM 42.5594 -89.5822 103° East 452 520 20,600 -1,620 Descending Chicago Center
09:54PM 42.5336 -89.4217 102° East 442 509 19,000 -1,560 Descending Chicago Center
09:55PM 42.5075 -89.2661 103° East 428 493 17,500 -1,440 Descending Chicago Center
09:56PM 42.4808 -89.1136 103° East 420 483 16,100 -1,560 Descending Chicago Center
09:57PM 42.4503 -88.9350 103° East 412 474 14,400 -1,560 Descending Chicago Center
09:58PM 42.4264 -88.7914 103° East 397 457 13,000 -1,380 Descending Chicago Center
09:59PM 42.4008 -88.6511 104° East 389 448 11,600 -1,440 Descending Chicago Center
10:00PM 42.3767 -88.5108 103° East 386 444 10,100 -840 Descending Chicago Center
10:01PM 42.3100 -88.3903 127° Southeast 364 419 10,000 -60 Descending Chicago Center
10:02PM 42.2417 -88.2867 132° Southeast 369 425 10,000  Level Chicago Center
10:03PM 42.1736 -88.1836 132° Southeast 369 425 10,000 -300 Level Chicago Center
10:04PM 42.1153 -88.0903 130° Southeast 330 380 9,400 -1,140 Descending Chicago Center
10:05PM 42.0800 -87.9867 115° Southeast 305 351 7,700 -1,500 Descending Chicago Center
10:06PM 42.0819 -87.8789 89° East 293 337 6,400 -1,500 Descending Chicago Center
10:07PM 42.0861 -87.7706 87° East 289 333 4,700 -1,920 Descending Chicago Center
10:08PM 42.0275 -87.7317 154° Southeast 254 292 2,600 -1,140 Descending Chicago Center
10:09PM 41.9869 -87.7806 222° Southwest 217 250 2,400 -540 Descending Chicago Center
10:10PM 41.9844 -87.8369 267° West 178 205 1,500 -600 Descending Chicago Center
10:11PM 41.9828 -87.8753 267° West 153 176 1,200 -300 Descending Chicago Center
10:13PM 41.9667 -87.9000 143° Southeast  Level FlightAware Approximate